Location: Emblem
(62.4273°N, 6.4710°E)
Time: 23:03:08
(UTC+01:00)

Transit 2A Rocket - Pass Details

Date: 07 October 2024
Orbit: 584 x 906 km, 66.7° (Epoch: 05 November)

Event Time Altitude Azimuth Distance (km) Brightness Sun altitude
Rises 00:36:40 0° 282° (WNW) 3,537 8.7 -32.5°
Reaches altitude 10° 00:39:17 10° 287° (WNW) 2,582 8.0 -32.6°
Enters shadow 00:44:39 56° 341° (NNW) 1,040 5.8 -32.7°
